TimeMDT,TemperatureF,Dew PointF,Humidity,Sea Level PressureIn,VisibilityMPH,Wind Direction,Wind SpeedMPH,Gust SpeedMPH,PrecipitationIn,Events,Conditions,WindDirDegrees,DateUTC
12:17 AM,69.8,50.0,49,30.14,10.0,SE,8.1,-,N/A,,Clear,140,2013-08-07 06:17:00
12:37 AM,69.8,50.0,49,30.14,10.0,SE,5.8,-,N/A,,Clear,130,2013-08-07 06:37:00
12:57 AM,69.8,50.0,49,30.14,10.0,SSE,3.5,-,N/A,,Clear,160,2013-08-07 06:57:00
1:17 AM,69.8,50.0,49,30.14,10.0,SSE,6.9,-,N/A,,Clear,150,2013-08-07 07:17:00
1:37 AM,68.0,50.0,52,30.14,10.0,SSE,3.5,-,N/A,,Clear,150,2013-08-07 07:37:00
1:57 AM,68.0,50.0,52,30.13,10.0,SE,6.9,-,N/A,,Clear,130,2013-08-07 07:57:00
2:17 AM,68.0,51.8,56,30.12,10.0,ESE,6.9,-,N/A,,Clear,120,2013-08-07 08:17:00
2:37 AM,68.0,51.8,56,30.12,10.0,South,5.8,-,N/A,,Clear,180,2013-08-07 08:37:00
2:57 AM,68.0,51.8,56,30.14,10.0,ESE,4.6,-,N/A,,Clear,110,2013-08-07 08:57:00
3:17 AM,68.0,51.8,56,30.14,10.0,ESE,8.1,-,N/A,,Clear,120,2013-08-07 09:17:00
3:36 AM,68.0,51.8,56,30.14,10.0,Calm,Calm,-,N/A,,Clear,0,2013-08-07 09:36:00
3:57 AM,66.2,53.6,64,30.14,10.0,SSE,4.6,-,N/A,,Clear,150,2013-08-07 09:57:00
4:17 AM,66.2,53.6,64,30.13,10.0,SSE,3.5,-,N/A,,Clear,160,2013-08-07 10:17:00
4:37 AM,66.2,53.6,64,30.14,10.0,SE,9.2,-,N/A,,Scattered Clouds,130,2013-08-07 10:37:00
4:57 AM,64.4,53.6,68,30.13,10.0,SSE,9.2,-,N/A,,Mostly Cloudy,150,2013-08-07 10:57:00
5:17 AM,64.4,53.6,68,30.13,10.0,SE,8.1,-,N/A,,Scattered Clouds,140,2013-08-07 11:17:00
5:36 AM,64.4,53.6,68,30.14,10.0,West,4.6,-,N/A,,Clear,280,2013-08-07 11:36:00
5:57 AM,64.4,53.6,68,30.13,10.0,SW,8.1,-,N/A,,Clear,220,2013-08-07 11:57:00
6:17 AM,64.4,53.6,68,30.13,10.0,WSW,8.1,-,N/A,,Scattered Clouds,240,2013-08-07 12:17:00
6:37 AM,62.6,53.6,72,30.15,10.0,WNW,5.8,-,N/A,,Scattered Clouds,300,2013-08-07 12:37:00
6:54 AM,62.6,53.6,72,30.15,10.0,West,3.5,-,N/A,,Scattered Clouds,270,2013-08-07 12:54:00
7:55 AM,66.2,55.4,68,30.19,40.0,SE,3.5,-,N/A,,Overcast,140,2013-08-07 13:55:00
8:48 AM,68.0,53.6,60,30.19,40.0,South,3.5,-,N/A,,Overcast,190,2013-08-07 14:48:00
9:48 AM,71.6,53.6,53,30.18,40.0,SSW,17.3,-,N/A,,Overcast,210,2013-08-07 15:48:00
10:48 AM,73.4,48.2,41,30.18,40.0,South,8.1,-,N/A,,Overcast,170,2013-08-07 16:48:00
11:58 AM,73.4,48.2,41,30.18,40.0,SE,13.8,-,N/A,,Overcast,140,2013-08-07 17:58:00
12:55 PM,71.6,51.8,50,30.19,40.0,SSE,13.8,-,N/A,Rain,Light Rain,150,2013-08-07 18:55:00
3:48 PM,73.4,55.4,53,30.16,30.0,SSE,11.5,-,N/A,,Overcast,160,2013-08-07 21:48:00
4:50 PM,71.6,57.2,60,30.15,30.0,SE,13.8,-,N/A,,Mostly Cloudy,130,2013-08-07 22:50:00
5:52 PM,71.6,57.2,60,30.14,30.0,SE,16.1,21.9,N/A,,Mostly Cloudy,130,2013-08-07 23:52:00
6:50 PM,69.8,59.0,68,30.12,30.0,SE,15.0,-,N/A,,Mostly Cloudy,130,2013-08-08 00:50:00
7:50 PM,66.2,59.0,78,30.10,30.0,ESE,5.8,-,N/A,,Mostly Cloudy,110,2013-08-08 01:50:00
8:57 PM,62.6,60.8,94,30.12,10.0,ESE,11.5,16.1,N/A,,Clear,110,2013-08-08 02:57:00
9:17 PM,62.6,60.8,94,30.11,10.0,ESE,12.7,-,N/A,,Clear,120,2013-08-08 03:17:00
9:37 PM,62.6,59.0,88,30.12,10.0,SE,12.7,-,N/A,,Clear,130,2013-08-08 03:37:00
9:57 PM,62.6,59.0,88,30.10,10.0,SE,11.5,-,N/A,,Clear,130,2013-08-08 03:57:00
10:17 PM,60.8,59.0,94,30.10,10.0,SE,8.1,-,N/A,,Clear,140,2013-08-08 04:17:00
10:37 PM,60.8,59.0,94,30.10,10.0,SE,6.9,-,N/A,,Clear,140,2013-08-08 04:37:00
10:56 PM,60.8,57.2,88,30.09,10.0,SE,4.6,-,N/A,,Clear,140,2013-08-08 04:56:00
11:17 PM,60.8,57.2,88,30.10,10.0,SE,8.1,-,N/A,,Clear,130,2013-08-08 05:17:00
11:37 PM,60.8,57.2,88,30.10,10.0,SSE,9.2,-,N/A,,Clear,150,2013-08-08 05:37:00
11:57 PM,59.0,55.4,88,30.10,10.0,SSE,9.2,-,N/A,,Clear,150,2013-08-08 05:57:00